Tracking 22440 objects as of 27-Feb-2021
HD Live streaming from Space Station
objects crossing your sky now

FREGAT DEB

Track FREGAT DEB now!
10-day predictions


NORAD ID: 45617
Int'l Code: 2011-037L
Perigee: 360.9 km
Apogee: 3,022.8 km
Inclination: 51.5 °
Period: 120.1 minutes
Semi major axis: 8062 km
RCS: Unknown
Launch date: July 18, 2011
Source: Commonwealth of Independent States (former USSR) (CIS)
Launch site: TYURATAM MISSILE AND SPACE COMPLEX (TTMTR)

Note: This is SATELLITE DEBRIS
aabbcc
Your satellite tracking list
Your tracking list is empty




NASA's NSSDC Master Catalog

Two Line Element Set (TLE):
1 45617U 11037L   21057.61289663  .00206137  00000-0  16583-1 0  9994
2 45617  51.5264  36.8329 1650739 215.6410 132.2406 11.99136034 33325
Source of the keplerian elements: AFSPC